Location: Apple Hill Campground
(44.2915°N, 71.6726°W)
Time: 05:08:59
(UTC+00:00)

Envisat - Visible Passes

Search period start: 04 October 2024 00:00
Search period end: 14 October 2024 00:00
Orbit: 762 x 764 km, 98.3° (Epoch: 03 October)

Date Brightness Start Highest point End Pass type
(mag) Time Alt. Az. Time Alt. Az. Time Alt. Az.
04 Oct 4.9 07:11:50 10° NNE 07:14:47 26° ENE 07:14:47 26° ENE visible
04 Oct 3.7 08:50:43 10° N 08:54:56 34° WNW 08:54:56 34° WNW visible
05 Oct 5.8 06:35:49 10° ENE 06:36:45 12° ENE 06:36:45 12° ENE visible
05 Oct 3.4 08:12:54 10° N 08:16:53 54° N 08:16:53 54° N visible
05 Oct 4.9 09:54:46 10° NW 09:56:01 11° NW 09:57:02 10° WNW visible
06 Oct 4.3 07:35:31 10° NNE 07:38:50 37° NE 07:38:50 37° NE visible
06 Oct 4.2 09:15:13 10° NNW 09:18:59 22° WNW 09:18:59 22° WNW visible
07 Oct 5.4 06:58:42 10° NE 07:00:47 19° ENE 07:00:47 19° ENE visible
07 Oct 3.6 08:37:04 10° N 08:40:56 40° NW 08:40:56 40° NW visible
08 Oct 3.8 07:59:25 10° NNE 08:02:53 45° NNE 08:02:53 45° NNE visible
08 Oct 4.7 09:40:10 10° NNW 09:42:46 14° WNW 09:43:01 14° WNW visible
09 Oct 4.9 07:22:11 10° NNE 07:24:49 27° NE 07:24:49 27° NE visible
09 Oct 4.1 09:01:26 10° N 09:04:57 27° NW 09:04:57 27° NW visible
10 Oct 5.8 06:45:43 10° NE 06:46:46 13° ENE 06:46:46 13° ENE visible
10 Oct 3.8 08:23:28 10° N 08:26:54 41° NNW 08:26:54 41° NNW visible
11 Oct 4.4 07:45:57 10° NNE 07:48:50 34° NNE 07:48:50 34° NNE visible
11 Oct 4.5 09:26:05 10° NNW 09:28:59 18° NW 09:28:59 18° NW visible
12 Oct 5.4 07:08:56 10° NE 07:10:47 19° NE 07:10:47 19° NE visible
12 Oct 4.0 08:47:42 10° N 08:50:55 30° NW 08:50:55 30° NW visible
13 Oct 4.1 08:09:54 10° N 08:12:51 35° N 08:12:51 35° N visible
13 Oct 4.9 09:51:30 10° NW 09:52:59 11° NW 09:52:59 11° NW visible
